This is the latest recevied weather packets stored in our database for station/object W4CAT-13. If no packets are shown the sender has not sent any weather packets the latest 10 day(s).
| Time | Temp. | Humidity | Pressure | Rain* | Wind** | Luminosity | Snow |
|---|---|---|---|---|---|---|---|
| 1778212297 | 10.56° C | 61% | 979.7 hPa | 0 mm | - | - | - |
| 1778211397 | 10.56° C | 61% | 979.7 hPa | 0 mm | - | - | - |
| 1778210497 | 10.56° C | 59% | 979.3 hPa | 0 mm | - | - | - |
| 1778209597 | 10.56° C | 62% | 979.3 hPa | 0 mm | - | - | - |
| 1778208697 | 11.11° C | 61% | 979 hPa | 0 mm | - | - | - |
| 1778207797 | 11.11° C | 60% | 979.3 hPa | 0 mm | - | - | - |
| 1778206897 | 11.67° C | 57% | 979.3 hPa | 0 mm | - | - | - |
| 1778205997 | 12.22° C | 53% | 979 hPa | 0 mm | - | - | - |
| 1778205097 | 12.22° C | 54% | 979 hPa | 0 mm | - | - | - |
| 1778204196 | 12.22° C | 54% | 978.7 hPa | 0 mm | - | - | - |
| 1778203297 | 12.78° C | 54% | 978.3 hPa | 0 mm | - | - | - |
| 1778202397 | 13.33° C | 52% | 978.3 hPa | 0 mm | - | - | - |
| 1778201496 | 13.33° C | 52% | 978.3 hPa | 0 mm | - | - | - |
| 1778200597 | 13.89° C | 51% | 978.1 hPa | 0 mm | - | - | - |
| 1778199696 | 14.44° C | 51% | 977.9 hPa | 0 mm | - | - | - |
| 1778198796 | 15° C | 51% | 977.6 hPa | 0 mm | - | - | - |
| 1778197896 | 15.56° C | 47% | 977.6 hPa | 0 mm | - | - | - |
| 1778196996 | 15.56° C | 48% | 977.6 hPa | 0 mm | - | - | - |
| 1778196096 | 16.11° C | 48% | 977.6 hPa | 0 mm | - | - | - |
| 1778195196 | 16.11° C | 48% | 977.6 hPa | 0 mm | - | - | - |
| 1778194266 | 16.67° C | 45% | 977.6 hPa | 0 mm | - | - | - |
| 1778193366 | 17.22° C | 45% | 977.6 hPa | 0 mm | - | - | - |
| 1778192466 | 17.22° C | 42% | 978 hPa | 0 mm | - | - | - |
| 1778190666 | 17.78° C | 39% | 978 hPa | 0 mm | - | - | - |
| 1778189766 | 18.33° C | 41% | 977.6 hPa | 0 mm | - | - | - |
* Rain latest hour (hover to see other rain measurements)
** Current wind speed in m/s (hover to see current wind gust speed)